Time,TemperatureF,DewpointF,PressureIn,WindDirection,WindDirectionDegrees,WindSpeedMPH,WindSpeedGustMPH,Humidity,HourlyPrecipIn,Conditions,Clouds,dailyrainin,SoftwareType,DateUTC
2013-02-13 00:00:00,38.7,34.3,29.93,NNE,18,2.0,2.0,84,0.00,,,0.00,Wunderground v.1.15,2013-02-13 06:00:00,
2013-02-13 00:06:00,38.7,34.3,29.93,NNE,19,1.0,2.0,84,0.00,,,0.00,Wunderground v.1.15,2013-02-13 06:06:00,
2013-02-13 00:11:00,38.7,34.3,29.93,West,281,0.0,1.0,84,0.00,,,0.00,Wunderground v.1.15,2013-02-13 06:11:00,
2013-02-13 00:16:00,38.6,34.2,29.93,NW,323,0.0,1.0,84,0.00,,,0.00,Wunderground v.1.15,2013-02-13 06:16:00,
2013-02-13 00:21:00,38.6,34.2,29.93,North,4,0.0,0.0,84,0.00,,,0.00,Wunderground v.1.15,2013-02-13 06:21:00,
2013-02-13 00:26:00,38.6,34.2,29.93,NNE,33,1.0,2.0,84,0.00,,,0.00,Wunderground v.1.15,2013-02-13 06:26:00,
2013-02-13 00:32:00,38.5,34.4,29.93,ENE,68,0.0,0.0,85,0.00,,,0.00,Wunderground v.1.15,2013-02-13 06:32:00,
2013-02-13 00:37:00,38.4,34.3,29.93,SSE,153,0.0,1.0,85,0.00,,,0.00,Wunderground v.1.15,2013-02-13 06:37:00,
2013-02-13 00:42:00,38.3,34.2,29.93,SE,136,0.0,0.0,85,0.00,,,0.00,Wunderground v.1.15,2013-02-13 06:42:00,
2013-02-13 00:47:00,38.4,34.3,29.93,SE,136,0.0,0.0,85,0.00,,,0.00,Wunderground v.1.15,2013-02-13 06:47:00,
2013-02-13 00:52:00,38.3,34.5,29.93,SE,136,0.0,0.0,86,0.00,,,0.00,Wunderground v.1.15,2013-02-13 06:52:00,
2013-02-13 00:57:00,38.2,34.4,29.92,North,352,0.0,1.0,86,0.00,,,0.00,Wunderground v.1.15,2013-02-13 06:57:00,
2013-02-13 01:03:00,38.1,34.6,29.92,NNE,16,1.0,3.0,87,0.00,,,0.00,Wunderground v.1.15,2013-02-13 07:03:00,
2013-02-13 01:08:00,38.1,34.3,29.93,NNE,23,2.0,3.0,86,0.00,,,0.00,Wunderground v.1.15,2013-02-13 07:08:00,
2013-02-13 01:13:00,38.1,34.3,29.93,NNW,345,1.0,2.0,86,0.00,,,0.00,Wunderground v.1.15,2013-02-13 07:13:00,
2013-02-13 01:18:00,38.2,34.4,29.93,NNW,347,0.0,2.0,86,0.00,,,0.00,Wunderground v.1.15,2013-02-13 07:18:00,
2013-02-13 01:24:00,38.1,34.6,29.92,NNW,329,1.0,2.0,87,0.00,,,0.00,Wunderground v.1.15,2013-02-13 07:24:00,
2013-02-13 01:29:00,38.1,34.6,29.92,NNE,20,1.0,3.0,87,0.00,,,0.00,Wunderground v.1.15,2013-02-13 07:29:00,
2013-02-13 01:34:00,38.1,34.6,29.92,North,1,2.0,3.0,87,0.00,,,0.00,Wunderground v.1.15,2013-02-13 07:34:00,
2013-02-13 01:39:00,38.0,34.5,29.92,North,356,1.0,3.0,87,0.00,,,0.00,Wunderground v.1.15,2013-02-13 07:39:00,
2013-02-13 01:44:00,38.0,34.5,29.92,North,6,0.0,1.0,87,0.00,,,0.00,Wunderground v.1.15,2013-02-13 07:44:00,
2013-02-13 01:50:00,38.0,34.5,29.92,NE,50,1.0,1.0,87,0.00,,,0.00,Wunderground v.1.15,2013-02-13 07:50:00,
2013-02-13 01:55:00,37.9,34.4,29.92,NE,35,1.0,3.0,87,0.00,,,0.00,Wunderground v.1.15,2013-02-13 07:55:00,
2013-02-13 02:00:00,37.9,34.4,29.92,North,356,1.0,2.0,87,0.00,,,0.00,Wunderground v.1.15,2013-02-13 08:00:00,
2013-02-13 02:06:00,37.9,34.4,29.91,NNE,13,2.0,6.0,87,0.00,,,0.00,Wunderground v.1.15,2013-02-13 08:06:00,
2013-02-13 02:11:00,37.7,34.2,29.91,NNE,13,3.0,3.0,87,0.00,,,0.00,Wunderground v.1.15,2013-02-13 08:11:00,
2013-02-13 02:16:00,37.7,34.5,29.91,NNE,14,4.0,5.0,88,0.00,,,0.00,Wunderground v.1.15,2013-02-13 08:16:00,
2013-02-13 02:21:00,37.6,34.4,29.91,North,359,3.0,3.0,88,0.00,,,0.00,Wunderground v.1.15,2013-02-13 08:21:00,
2013-02-13 02:26:00,37.6,34.4,29.91,North,350,2.0,4.0,88,0.00,,,0.00,Wunderground v.1.15,2013-02-13 08:26:00,
2013-02-13 02:32:00,37.5,34.3,29.90,NNE,12,2.0,4.0,88,0.00,,,0.00,Wunderground v.1.15,2013-02-13 08:32:00,
2013-02-13 02:37:00,37.4,34.2,29.90,North,358,3.0,4.0,88,0.00,,,0.00,Wunderground v.1.15,2013-02-13 08:37:00,
2013-02-13 02:43:00,37.4,34.2,29.89,North,6,3.0,3.0,88,0.00,,,0.00,Wunderground v.1.15,2013-02-13 08:43:00,
2013-02-13 02:49:00,37.3,34.4,29.89,North,11,3.0,4.0,89,0.00,,,0.00,Wunderground v.1.15,2013-02-13 08:49:00,
2013-02-13 02:54:00,37.3,34.4,29.89,North,5,4.0,5.0,89,0.00,,,0.00,Wunderground v.1.15,2013-02-13 08:54:00,
2013-02-13 02:59:00,37.2,34.3,29.89,NNE,13,4.0,6.0,89,0.00,,,0.00,Wunderground v.1.15,2013-02-13 08:59:00,
2013-02-13 03:05:00,37.2,34.5,29.89,NNE,12,4.0,6.0,90,0.00,,,0.00,Wunderground v.1.15,2013-02-13 09:05:00,
2013-02-13 03:10:00,37.1,34.4,29.88,NNE,13,4.0,6.0,90,0.00,,,0.00,Wunderground v.1.15,2013-02-13 09:10:00,
2013-02-13 03:15:00,37.1,34.4,29.89,North,351,3.0,6.0,90,0.00,,,0.00,Wunderground v.1.15,2013-02-13 09:15:00,
2013-02-13 03:20:00,37.0,34.3,29.89,NNW,338,4.0,4.0,90,0.00,,,0.00,Wunderground v.1.15,2013-02-13 09:20:00,
2013-02-13 03:26:00,36.9,34.2,29.88,NNW,340,4.0,4.0,90,0.00,,,0.00,Wunderground v.1.15,2013-02-13 09:26:00,
2013-02-13 03:31:00,36.9,34.2,29.88,NNW,338,4.0,4.0,90,0.00,,,0.00,Wunderground v.1.15,2013-02-13 09:31:00,
2013-02-13 03:36:00,36.9,34.2,29.88,North,352,3.0,4.0,90,0.00,,,0.00,Wunderground v.1.15,2013-02-13 09:36:00,
2013-02-13 03:41:00,36.8,34.1,29.88,North,351,3.0,4.0,90,0.00,,,0.00,Wunderground v.1.15,2013-02-13 09:41:00,
2013-02-13 03:46:00,36.7,34.0,29.88,NNW,345,4.0,6.0,90,0.00,,,0.00,Wunderground v.1.15,2013-02-13 09:46:00,
2013-02-13 03:51:00,36.7,34.0,29.88,North,3,4.0,4.0,90,0.00,,,0.00,Wunderground v.1.15,2013-02-13 09:51:00,
2013-02-13 03:56:00,36.6,33.9,29.88,NNW,345,4.0,5.0,90,0.00,,,0.00,Wunderground v.1.15,2013-02-13 09:56:00,
2013-02-13 04:02:00,36.5,33.8,29.88,North,9,4.0,4.0,90,0.00,,,0.00,Wunderground v.1.15,2013-02-13 10:02:00,
2013-02-13 04:07:00,36.5,33.8,29.88,NNW,329,3.0,4.0,90,0.00,,,0.00,Wunderground v.1.15,2013-02-13 10:07:00,
2013-02-13 04:12:00,36.4,33.7,29.88,NNW,345,3.0,3.0,90,0.00,,,0.00,Wunderground v.1.15,2013-02-13 10:12:00,
2013-02-13 04:18:00,36.4,33.7,29.87,NNE,17,4.0,6.0,90,0.00,,,0.00,Wunderground v.1.15,2013-02-13 10:18:00,
2013-02-13 04:23:00,36.4,33.7,29.87,North,349,4.0,5.0,90,0.00,,,0.00,Wunderground v.1.15,2013-02-13 10:23:00,
2013-02-13 04:28:00,36.3,33.1,29.87,North,4,5.0,7.0,88,0.00,,,0.00,Wunderground v.1.15,2013-02-13 10:28:00,
2013-02-13 04:33:00,36.3,33.4,29.87,NNE,20,5.0,5.0,89,0.00,,,0.00,Wunderground v.1.15,2013-02-13 10:33:00,
2013-02-13 04:38:00,36.2,33.0,29.87,NE,37,3.0,5.0,88,0.00,,,0.00,Wunderground v.1.15,2013-02-13 10:38:00,
2013-02-13 04:43:00,36.2,33.0,29.87,NNE,32,3.0,4.0,88,0.00,,,0.00,Wunderground v.1.15,2013-02-13 10:43:00,
2013-02-13 04:48:00,36.2,32.4,29.88,North,5,3.0,4.0,86,0.00,,,0.00,Wunderground v.1.15,2013-02-13 10:48:00,
2013-02-13 04:53:00,36.2,32.7,29.88,NNW,339,3.0,6.0,87,0.00,,,0.00,Wunderground v.1.15,2013-02-13 10:53:00,
2013-02-13 04:59:00,36.1,32.6,29.88,NNW,333,4.0,8.0,87,0.00,,,0.00,Wunderground v.1.15,2013-02-13 10:59:00,
2013-02-13 05:04:00,36.1,32.6,29.87,NNW,337,4.0,5.0,87,0.00,,,0.00,Wunderground v.1.15,2013-02-13 11:04:00,
2013-02-13 05:09:00,36.0,32.2,29.87,North,4,4.0,5.0,86,0.00,,,0.00,Wunderground v.1.15,2013-02-13 11:09:00,
2013-02-13 05:14:00,36.0,32.5,29.87,NNW,348,4.0,5.0,87,0.00,,,0.00,Wunderground v.1.15,2013-02-13 11:14:00,
2013-02-13 05:19:00,35.9,32.4,29.87,North,352,4.0,5.0,87,0.00,,,0.00,Wunderground v.1.15,2013-02-13 11:19:00,
2013-02-13 05:25:00,35.9,32.1,29.87,NNE,13,4.0,4.0,86,0.00,,,0.00,Wunderground v.1.15,2013-02-13 11:25:00,
2013-02-13 05:30:00,35.8,32.0,29.87,NNE,13,3.0,3.0,86,0.00,,,0.00,Wunderground v.1.15,2013-02-13 11:30:00,
2013-02-13 05:35:00,35.8,32.0,29.87,North,8,3.0,5.0,86,0.00,,,0.00,Wunderground v.1.15,2013-02-13 11:35:00,
2013-02-13 05:40:00,35.8,32.0,29.87,NNE,33,2.0,2.0,86,0.00,,,0.00,Wunderground v.1.15,2013-02-13 11:40:00,
2013-02-13 05:45:00,35.8,32.0,29.87,NE,34,1.0,2.0,86,0.00,,,0.00,Wunderground v.1.15,2013-02-13 11:45:00,
2013-02-13 05:50:00,35.8,32.3,29.87,NNE,30,1.0,2.0,87,0.00,,,0.00,Wunderground v.1.15,2013-02-13 11:50:00,
2013-02-13 05:55:00,35.8,32.3,29.87,NNE,17,2.0,3.0,87,0.00,,,0.00,Wunderground v.1.15,2013-02-13 11:55:00,
2013-02-13 06:00:00,35.7,32.5,29.87,NNE,33,1.0,1.0,88,0.00,,,0.00,Wunderground v.1.15,2013-02-13 12:00:00,
2013-02-13 06:06:00,35.7,32.5,29.87,NNE,15,1.0,2.0,88,0.00,,,0.00,Wunderground v.1.15,2013-02-13 12:06:00,
2013-02-13 06:11:00,35.7,32.5,29.87,NNE,27,1.0,3.0,88,0.00,,,0.00,Wunderground v.1.15,2013-02-13 12:11:00,
2013-02-13 06:16:00,35.6,32.4,29.87,North,356,2.0,3.0,88,0.00,,,0.00,Wunderground v.1.15,2013-02-13 12:16:00,
2013-02-13 06:21:00,35.6,32.7,29.87,North,8,1.0,1.0,89,0.00,,,0.00,Wunderground v.1.15,2013-02-13 12:21:00,
2013-02-13 06:27:00,35.5,32.6,29.88,North,357,0.0,1.0,89,0.00,,,0.00,Wunderground v.1.15,2013-02-13 12:27:00,
2013-02-13 06:32:00,35.4,32.5,29.88,North,354,0.0,1.0,89,0.00,,,0.00,Wunderground v.1.15,2013-02-13 12:32:00,
2013-02-13 06:37:00,35.4,32.8,29.88,North,354,0.0,1.0,90,0.00,,,0.00,Wunderground v.1.15,2013-02-13 12:37:00,
2013-02-13 06:42:00,35.3,32.7,29.88,North,356,0.0,0.0,90,0.00,,,0.00,Wunderground v.1.15,2013-02-13 12:42:00,
2013-02-13 06:47:00,35.3,32.7,29.89,NNW,347,0.0,1.0,90,0.00,,,0.00,Wunderground v.1.15,2013-02-13 12:47:00,
2013-02-13 06:52:00,35.2,32.6,29.89,NNW,347,0.0,0.0,90,0.00,,,0.00,Wunderground v.1.15,2013-02-13 12:52:00,
2013-02-13 06:57:00,35.2,32.6,29.88,NNW,347,0.0,0.0,90,0.00,,,0.00,Wunderground v.1.15,2013-02-13 12:57:00,
2013-02-13 07:03:00,35.2,32.6,29.89,NNW,347,0.0,0.0,90,0.00,,,0.00,Wunderground v.1.15,2013-02-13 13:03:00,
2013-02-13 07:08:00,35.1,32.5,29.89,NNW,347,0.0,0.0,90,0.00,,,0.00,Wunderground v.1.15,2013-02-13 13:08:00,
2013-02-13 07:13:00,35.1,32.5,29.89,NNW,347,0.0,0.0,90,0.00,,,0.00,Wunderground v.1.15,2013-02-13 13:13:00,
2013-02-13 07:19:00,35.2,32.6,29.89,NNW,347,0.0,0.0,90,0.00,,,0.00,Wunderground v.1.15,2013-02-13 13:19:00,
2013-02-13 07:24:00,35.2,32.6,29.89,NNW,347,0.0,0.0,90,0.00,,,0.00,Wunderground v.1.15,2013-02-13 13:24:00,
2013-02-13 07:29:00,35.2,32.6,29.90,NNW,347,0.0,0.0,90,0.00,,,0.00,Wunderground v.1.15,2013-02-13 13:29:00,
2013-02-13 07:35:00,35.2,32.6,29.90,NNW,347,0.0,0.0,90,0.00,,,0.00,Wunderground v.1.15,2013-02-13 13:35:00,
2013-02-13 07:40:00,35.3,32.4,29.90,NNW,345,0.0,0.0,89,0.00,,,0.00,Wunderground v.1.15,2013-02-13 13:40:00,
2013-02-13 07:46:00,35.4,32.5,29.90,NNW,345,0.0,1.0,89,0.00,,,0.00,Wunderground v.1.15,2013-02-13 13:46:00,
2013-02-13 07:51:00,35.5,32.6,29.90,NNW,345,0.0,0.0,89,0.00,,,0.00,Wunderground v.1.15,2013-02-13 13:51:00,
2013-02-13 07:56:00,35.5,32.6,29.90,NNW,345,0.0,0.0,89,0.00,,,0.00,Wunderground v.1.15,2013-02-13 13:56:00,
2013-02-13 08:02:00,35.6,32.4,29.90,NNW,345,0.0,0.0,88,0.00,,,0.00,Wunderground v.1.15,2013-02-13 14:02:00,
2013-02-13 08:08:00,35.7,32.5,29.90,NNW,345,0.0,0.0,88,0.00,,,0.00,Wunderground v.1.15,2013-02-13 14:08:00,
2013-02-13 08:13:00,35.9,32.7,29.90,North,360,0.0,0.0,88,0.00,,,0.00,Wunderground v.1.15,2013-02-13 14:13:00,
2013-02-13 08:18:00,35.9,32.4,29.90,North,360,0.0,0.0,87,0.00,,,0.00,Wunderground v.1.15,2013-02-13 14:18:00,
2013-02-13 08:23:00,36.1,32.6,29.90,North,358,0.0,0.0,87,0.00,,,0.00,Wunderground v.1.15,2013-02-13 14:23:00,
2013-02-13 08:29:00,36.2,32.7,29.90,North,358,0.0,0.0,87,0.00,,,0.00,Wunderground v.1.15,2013-02-13 14:29:00,
2013-02-13 08:34:00,36.2,32.4,29.90,NNW,335,0.0,0.0,86,0.00,,,0.00,Wunderground v.1.15,2013-02-13 14:34:00,
2013-02-13 08:39:00,36.2,32.4,29.91,NNW,330,0.0,1.0,86,0.00,,,0.00,Wunderground v.1.15,2013-02-13 14:39:00,
2013-02-13 08:44:00,36.3,32.2,29.90,NNW,329,0.0,0.0,85,0.00,,,0.00,Wunderground v.1.15,2013-02-13 14:44:00,
2013-02-13 08:50:00,36.4,32.3,29.90,NW,326,0.0,0.0,85,0.00,,,0.00,Wunderground v.1.15,2013-02-13 14:50:00,
2013-02-13 08:55:00,36.5,32.4,29.90,NNW,329,0.0,1.0,85,0.00,,,0.00,Wunderground v.1.15,2013-02-13 14:55:00,
2013-02-13 09:00:00,36.6,32.5,29.90,ESE,123,0.0,0.0,85,0.00,,,0.00,Wunderground v.1.15,2013-02-13 15:00:00,
2013-02-13 09:06:00,36.7,32.3,29.90,East,98,0.0,0.0,84,0.00,,,0.00,Wunderground v.1.15,2013-02-13 15:06:00,
2013-02-13 09:11:00,36.9,32.2,29.90,SE,141,0.0,0.0,83,0.00,,,0.00,Wunderground v.1.15,2013-02-13 15:11:00,
2013-02-13 09:16:00,37.1,32.4,29.90,ESE,108,0.0,1.0,83,0.00,,,0.00,Wunderground v.1.15,2013-02-13 15:16:00,
2013-02-13 09:21:00,37.2,32.2,29.90,West,266,0.0,2.0,82,0.00,,,0.00,Wunderground v.1.15,2013-02-13 15:21:00,
2013-02-13 09:26:00,37.3,32.3,29.90,SW,228,1.0,2.0,82,0.00,,,0.00,Wunderground v.1.15,2013-02-13 15:26:00,
2013-02-13 09:32:00,37.3,32.0,29.90,WSW,255,1.0,1.0,81,0.00,,,0.00,Wunderground v.1.15,2013-02-13 15:32:00,
2013-02-13 09:37:00,37.6,32.0,29.91,WSW,244,0.0,1.0,80,0.00,,,0.00,Wunderground v.1.15,2013-02-13 15:37:00,
2013-02-13 09:42:00,37.9,32.3,29.91,WNW,290,0.0,2.0,80,0.00,,,0.00,Wunderground v.1.15,2013-02-13 15:42:00,
2013-02-13 09:47:00,37.8,32.2,29.91,West,277,0.0,2.0,80,0.00,,,0.00,Wunderground v.1.15,2013-02-13 15:47:00,
2013-02-13 09:52:00,37.9,32.6,29.91,WNW,284,1.0,2.0,81,0.00,,,0.00,Wunderground v.1.15,2013-02-13 15:52:00,
2013-02-13 09:58:00,38.0,32.7,29.91,West,273,1.0,3.0,81,0.00,,,0.00,Wunderground v.1.15,2013-02-13 15:58:00,
2013-02-13 10:04:00,38.0,32.4,29.91,WNW,283,1.0,2.0,80,0.00,,,0.00,Wunderground v.1.15,2013-02-13 16:04:00,
2013-02-13 10:09:00,38.0,32.4,29.90,West,259,1.0,2.0,80,0.00,,,0.00,Wunderground v.1.15,2013-02-13 16:09:00,
2013-02-13 10:14:00,38.1,32.5,29.90,West,260,2.0,3.0,80,0.00,,,0.00,Wunderground v.1.15,2013-02-13 16:14:00,
2013-02-13 10:19:00,38.2,32.6,29.91,WNW,284,3.0,4.0,80,0.00,,,0.00,Wunderground v.1.15,2013-02-13 16:19:00,
2013-02-13 10:24:00,38.4,32.5,29.91,WNW,298,3.0,4.0,79,0.00,,,0.00,Wunderground v.1.15,2013-02-13 16:24:00,
2013-02-13 10:29:00,38.6,32.6,29.91,West,281,3.0,4.0,79,0.00,,,0.00,Wunderground v.1.15,2013-02-13 16:29:00,
2013-02-13 10:35:00,38.8,32.2,29.90,WNW,284,3.0,5.0,77,0.00,,,0.00,Wunderground v.1.15,2013-02-13 16:35:00,
2013-02-13 10:40:00,39.1,32.8,29.91,WSW,243,3.0,4.0,78,0.00,,,0.00,Wunderground v.1.15,2013-02-13 16:40:00,
2013-02-13 10:45:00,39.3,32.7,29.90,WNW,291,3.0,4.0,77,0.00,,,0.00,Wunderground v.1.15,2013-02-13 16:45:00,
2013-02-13 10:50:00,39.5,33.2,29.90,West,278,3.0,3.0,78,0.00,,,0.00,Wunderground v.1.15,2013-02-13 16:50:00,
2013-02-13 10:55:00,39.5,32.9,29.90,West,264,3.0,5.0,77,0.00,,,0.00,Wunderground v.1.15,2013-02-13 16:55:00,
2013-02-13 11:00:00,39.6,33.0,29.90,West,281,3.0,4.0,77,0.00,,,0.00,Wunderground v.1.15,2013-02-13 17:00:00,
2013-02-13 11:06:00,39.6,32.7,29.90,West,269,3.0,4.0,76,0.00,,,0.00,Wunderground v.1.15,2013-02-13 17:06:00,
2013-02-13 11:11:00,39.6,33.0,29.90,West,273,3.0,3.0,77,0.00,,,0.00,Wunderground v.1.15,2013-02-13 17:11:00,
2013-02-13 11:16:00,39.8,33.2,29.90,West,271,3.0,4.0,77,0.00,,,0.00,Wunderground v.1.15,2013-02-13 17:16:00,
2013-02-13 11:21:00,40.3,33.0,29.89,WSW,255,2.0,2.0,75,0.00,,,0.00,Wunderground v.1.15,2013-02-13 17:21:00,
2013-02-13 11:26:00,41.2,34.9,29.89,West,281,1.0,2.0,78,0.00,,,0.00,Wunderground v.1.15,2013-02-13 17:26:00,
2013-02-13 11:31:00,41.9,34.2,29.88,SW,226,1.0,1.0,74,0.00,,,0.00,Wunderground v.1.15,2013-02-13 17:31:00,
2013-02-13 11:36:00,42.5,34.1,29.89,West,267,2.0,5.0,72,0.00,,,0.00,Wunderground v.1.15,2013-02-13 17:36:00,
2013-02-13 11:42:00,42.6,33.5,29.88,WNW,295,3.0,5.0,70,0.00,,,0.00,Wunderground v.1.15,2013-02-13 17:42:00,
2013-02-13 11:47:00,42.4,33.3,29.88,West,276,4.0,8.0,70,0.00,,,0.00,Wunderground v.1.15,2013-02-13 17:47:00,
2013-02-13 11:52:00,42.4,32.9,29.88,SW,231,4.0,5.0,69,0.00,,,0.00,Wunderground v.1.15,2013-02-13 17:52:00,
2013-02-13 11:58:00,43.1,33.3,29.88,SSE,158,3.0,5.0,68,0.00,,,0.00,Wunderground v.1.15,2013-02-13 17:58:00,
2013-02-13 12:03:00,43.5,34.4,29.88,WSW,243,3.0,6.0,70,0.00,,,0.00,Wunderground v.1.15,2013-02-13 18:03:00,
2013-02-13 12:08:00,43.5,34.4,29.87,WNW,290,3.0,9.0,70,0.00,,,0.00,Wunderground v.1.15,2013-02-13 18:08:00,
2013-02-13 12:14:00,43.5,34.7,29.87,West,263,5.0,7.0,71,0.00,,,0.00,Wunderground v.1.15,2013-02-13 18:14:00,
2013-02-13 12:19:00,43.4,35.0,29.87,West,263,4.0,7.0,72,0.00,,,0.00,Wunderground v.1.15,2013-02-13 18:19:00,
2013-02-13 12:24:00,43.6,34.8,29.87,West,280,3.0,4.0,71,0.00,,,0.00,Wunderground v.1.15,2013-02-13 18:24:00,
2013-02-13 12:29:00,43.9,35.5,29.87,WNW,294,4.0,7.0,72,0.00,,,0.00,Wunderground v.1.15,2013-02-13 18:29:00,
2013-02-13 12:35:00,44.4,34.9,29.87,WSW,257,4.0,10.0,69,0.00,,,0.00,Wunderground v.1.15,2013-02-13 18:35:00,
2013-02-13 12:40:00,44.2,35.0,29.86,WNW,285,4.0,4.0,70,0.00,,,0.00,Wunderground v.1.15,2013-02-13 18:40:00,
2013-02-13 12:45:00,44.5,35.7,29.86,West,272,5.0,7.0,71,0.00,,,0.00,Wunderground v.1.15,2013-02-13 18:45:00,
2013-02-13 12:50:00,44.6,35.4,29.86,WNW,293,5.0,8.0,70,0.00,,,0.00,Wunderground v.1.15,2013-02-13 18:50:00,
2013-02-13 12:55:00,44.8,36.0,29.86,WNW,285,5.0,8.0,71,0.00,,,0.00,Wunderground v.1.15,2013-02-13 18:55:00,
2013-02-13 13:00:00,45.0,35.4,29.85,WNW,295,5.0,5.0,69,0.00,,,0.00,Wunderground v.1.15,2013-02-13 19:00:00,
2013-02-13 13:06:00,45.5,35.9,29.86,West,276,4.0,6.0,69,0.00,,,0.00,Wunderground v.1.15,2013-02-13 19:06:00,
2013-02-13 13:11:00,45.6,36.4,29.85,West,266,5.0,6.0,70,0.00,,,0.00,Wunderground v.1.15,2013-02-13 19:11:00,
2013-02-13 13:17:00,46.0,35.7,29.85,West,281,5.0,7.0,67,0.00,,,0.00,Wunderground v.1.15,2013-02-13 19:17:00,
2013-02-13 13:22:00,46.1,34.2,29.85,West,259,5.0,9.0,63,0.00,,,0.00,Wunderground v.1.15,2013-02-13 19:22:00,
2013-02-13 13:27:00,46.3,36.7,29.85,WNW,291,5.0,9.0,69,0.00,,,0.00,Wunderground v.1.15,2013-02-13 19:27:00,
2013-02-13 13:32:00,46.7,35.2,29.85,West,280,3.0,4.0,64,0.00,,,0.00,Wunderground v.1.15,2013-02-13 19:32:00,
2013-02-13 13:38:00,46.8,34.9,29.85,West,267,4.0,5.0,63,0.00,,,0.00,Wunderground v.1.15,2013-02-13 19:38:00,
2013-02-13 13:43:00,47.0,37.0,29.85,WNW,300,5.0,8.0,68,0.00,,,0.00,Wunderground v.1.15,2013-02-13 19:43:00,
2013-02-13 13:48:00,46.9,34.6,29.84,WNW,290,6.0,8.0,62,0.00,,,0.00,Wunderground v.1.15,2013-02-13 19:48:00,
2013-02-13 13:53:00,47.1,35.1,29.84,West,278,5.0,6.0,63,0.00,,,0.00,Wunderground v.1.15,2013-02-13 19:53:00,
2013-02-13 13:58:00,47.4,35.0,29.84,West,266,4.0,6.0,62,0.00,,,0.00,Wunderground v.1.15,2013-02-13 19:58:00,
2013-02-13 14:04:00,47.5,33.9,29.84,WSW,255,5.0,11.0,59,0.00,,,0.00,Wunderground v.1.15,2013-02-13 20:04:00,
2013-02-13 14:10:00,47.7,35.7,29.84,WNW,285,6.0,6.0,63,0.00,,,0.00,Wunderground v.1.15,2013-02-13 20:10:00,
2013-02-13 14:15:00,47.9,34.7,29.84,SW,225,5.0,6.0,60,0.00,,,0.00,Wunderground v.1.15,2013-02-13 20:15:00,
2013-02-13 14:21:00,48.6,35.7,29.84,West,266,3.0,7.0,61,0.00,,,0.00,Wunderground v.1.15,2013-02-13 20:21:00,
2013-02-13 14:26:00,48.8,34.2,29.84,West,269,4.0,7.0,57,0.00,,,0.00,Wunderground v.1.15,2013-02-13 20:26:00,
2013-02-13 14:31:00,48.7,34.6,29.83,West,277,5.0,11.0,58,0.00,,,0.00,Wunderground v.1.15,2013-02-13 20:31:00,
2013-02-13 14:36:00,48.7,34.6,29.84,SW,229,6.0,11.0,58,0.00,,,0.00,Wunderground v.1.15,2013-02-13 20:36:00,
2013-02-13 14:42:00,49.1,35.8,29.83,West,266,4.0,5.0,60,0.00,,,0.00,Wunderground v.1.15,2013-02-13 20:42:00,
2013-02-13 14:47:00,49.3,36.0,29.84,WSW,252,3.0,6.0,60,0.00,,,0.00,Wunderground v.1.15,2013-02-13 20:47:00,
2013-02-13 14:52:00,49.5,34.9,29.83,West,271,4.0,7.0,57,0.00,,,0.00,Wunderground v.1.15,2013-02-13 20:52:00,
2013-02-13 14:57:00,49.5,35.3,29.83,WSW,250,4.0,7.0,58,0.00,,,0.00,Wunderground v.1.15,2013-02-13 20:57:00,
2013-02-13 15:03:00,49.9,37.0,29.83,WSW,253,4.0,8.0,61,0.00,,,0.00,Wunderground v.1.15,2013-02-13 21:03:00,
2013-02-13 15:08:00,49.8,35.2,29.83,SSE,166,4.0,8.0,57,0.00,,,0.00,Wunderground v.1.15,2013-02-13 21:08:00,
2013-02-13 15:13:00,50.2,36.8,29.83,WNW,282,4.0,5.0,60,0.00,,,0.00,Wunderground v.1.15,2013-02-13 21:13:00,
2013-02-13 15:19:00,50.2,36.0,29.84,WSW,243,3.0,6.0,58,0.00,,,0.00,Wunderground v.1.15,2013-02-13 21:19:00,
2013-02-13 15:24:00,50.3,36.1,29.84,WSW,246,3.0,5.0,58,0.00,,,0.00,Wunderground v.1.15,2013-02-13 21:24:00,
2013-02-13 15:29:00,50.3,35.6,29.84,WSW,250,4.0,7.0,57,0.00,,,0.00,Wunderground v.1.15,2013-02-13 21:29:00,
2013-02-13 15:34:00,50.3,35.6,29.83,West,268,4.0,4.0,57,0.00,,,0.00,Wunderground v.1.15,2013-02-13 21:34:00,
2013-02-13 15:39:00,50.5,36.3,29.83,NW,305,3.0,6.0,58,0.00,,,0.00,Wunderground v.1.15,2013-02-13 21:39:00,
2013-02-13 15:45:00,50.6,36.4,29.83,West,281,2.0,6.0,58,0.00,,,0.00,Wunderground v.1.15,2013-02-13 21:45:00,
2013-02-13 15:50:00,50.5,36.7,29.83,South,187,3.0,3.0,59,0.00,,,0.00,Wunderground v.1.15,2013-02-13 21:50:00,
2013-02-13 15:55:00,50.4,36.6,29.83,SW,234,4.0,5.0,59,0.00,,,0.00,Wunderground v.1.15,2013-02-13 21:55:00,
2013-02-13 16:00:00,50.0,36.2,29.83,South,183,5.0,5.0,59,0.00,,,0.00,Wunderground v.1.15,2013-02-13 22:00:00,
2013-02-13 16:06:00,49.7,35.9,29.84,West,281,5.0,10.0,59,0.00,,,0.00,Wunderground v.1.15,2013-02-13 22:06:00,
2013-02-13 16:11:00,49.6,36.3,29.84,SSW,213,5.0,5.0,60,0.00,,,0.00,Wunderground v.1.15,2013-02-13 22:11:00,
2013-02-13 16:17:00,49.4,36.5,29.84,South,188,5.0,10.0,61,0.00,,,0.00,Wunderground v.1.15,2013-02-13 22:17:00,
2013-02-13 16:22:00,49.4,36.5,29.84,West,259,4.0,9.0,61,0.00,,,0.00,Wunderground v.1.15,2013-02-13 22:22:00,
2013-02-13 16:27:00,49.5,36.2,29.84,West,259,3.0,9.0,60,0.00,,,0.00,Wunderground v.1.15,2013-02-13 22:27:00,
2013-02-13 16:32:00,49.3,36.0,29.84,SSE,151,3.0,6.0,60,0.00,,,0.00,Wunderground v.1.15,2013-02-13 22:32:00,
2013-02-13 16:37:00,49.2,36.3,29.84,SSW,197,3.0,10.0,61,0.00,,,0.00,Wunderground v.1.15,2013-02-13 22:37:00,
2013-02-13 16:43:00,48.9,36.0,29.84,WNW,293,4.0,4.0,61,0.00,,,0.00,Wunderground v.1.15,2013-02-13 22:43:00,
2013-02-13 16:48:00,48.9,36.9,29.84,SSW,210,3.0,4.0,63,0.00,,,0.00,Wunderground v.1.15,2013-02-13 22:48:00,
2013-02-13 16:53:00,48.7,36.3,29.84,WNW,288,2.0,6.0,62,0.00,,,0.00,Wunderground v.1.15,2013-02-13 22:53:00,
2013-02-13 16:59:00,48.5,36.1,29.85,West,270,2.0,6.0,62,0.00,,,0.00,Wunderground v.1.15,2013-02-13 22:59:00,
2013-02-13 17:04:00,48.3,35.9,29.84,SW,215,2.0,6.0,62,0.00,,,0.00,Wunderground v.1.15,2013-02-13 23:04:00,
2013-02-13 17:10:00,48.1,36.1,29.85,West,259,2.0,2.0,63,0.00,,,0.00,Wunderground v.1.15,2013-02-13 23:10:00,
2013-02-13 17:15:00,47.8,36.2,29.85,SW,218,1.0,2.0,64,0.00,,,0.00,Wunderground v.1.15,2013-02-13 23:15:00,
2013-02-13 17:20:00,47.4,35.8,29.85,SSW,195,1.0,1.0,64,0.00,,,0.00,Wunderground v.1.15,2013-02-13 23:20:00,
2013-02-13 17:26:00,46.9,35.7,29.85,SW,219,1.0,2.0,65,0.00,,,0.00,Wunderground v.1.15,2013-02-13 23:26:00,
2013-02-13 17:31:00,46.4,35.7,29.85,SW,224,1.0,1.0,66,0.00,,,0.00,Wunderground v.1.15,2013-02-13 23:31:00,
2013-02-13 17:37:00,45.8,35.5,29.85,ESE,120,0.0,1.0,67,0.00,,,0.00,Wunderground v.1.15,2013-02-13 23:37:00,
2013-02-13 17:42:00,45.0,35.1,29.85,SSW,200,0.0,0.0,68,0.00,,,0.00,Wunderground v.1.15,2013-02-13 23:42:00,
2013-02-13 17:47:00,44.5,35.0,29.85,SSE,160,0.0,0.0,69,0.00,,,0.00,Wunderground v.1.15,2013-02-13 23:47:00,
2013-02-13 17:53:00,44.0,34.5,29.85,SSE,158,0.0,0.0,69,0.00,,,0.00,Wunderground v.1.15,2013-02-13 23:53:00,
2013-02-13 17:58:00,43.6,34.5,29.86,SE,139,0.0,0.0,70,0.00,,,0.00,Wunderground v.1.15,2013-02-13 23:58:00,
2013-02-13 18:04:00,42.9,34.5,29.85,South,183,0.0,0.0,72,0.00,,,0.00,Wunderground v.1.15,2013-02-14 00:04:00,
2013-02-13 18:09:00,42.1,34.1,29.86,East,98,0.0,0.0,73,0.00,,,0.00,Wunderground v.1.15,2013-02-14 00:09:00,
2013-02-13 18:15:00,41.6,34.3,29.86,East,98,0.0,0.0,75,0.00,,,0.00,Wunderground v.1.15,2013-02-14 00:15:00,
2013-02-13 18:20:00,41.0,34.0,29.86,ESE,115,0.0,0.0,76,0.00,,,0.00,Wunderground v.1.15,2013-02-14 00:20:00,
2013-02-13 18:25:00,40.4,34.1,29.86,ESE,113,0.0,0.0,78,0.00,,,0.00,Wunderground v.1.15,2013-02-14 00:25:00,
2013-02-13 18:31:00,39.8,33.8,29.86,ESE,113,0.0,0.0,79,0.00,,,0.00,Wunderground v.1.15,2013-02-14 00:31:00,
2013-02-13 18:36:00,39.4,33.7,29.86,ESE,108,0.0,1.0,80,0.00,,,0.00,Wunderground v.1.15,2013-02-14 00:36:00,
2013-02-13 18:41:00,39.1,33.8,29.86,East,95,0.0,0.0,81,0.00,,,0.00,Wunderground v.1.15,2013-02-14 00:41:00,
2013-02-13 18:47:00,38.9,34.2,29.86,East,86,0.0,0.0,83,0.00,,,0.00,Wunderground v.1.15,2013-02-14 00:47:00,
2013-02-13 18:52:00,38.6,33.9,29.86,East,91,0.0,0.0,83,0.00,,,0.00,Wunderground v.1.15,2013-02-14 00:52:00,
2013-02-13 18:58:00,38.3,33.9,29.86,East,80,0.0,1.0,84,0.00,,,0.00,Wunderground v.1.15,2013-02-14 00:58:00,
2013-02-13 19:03:00,38.3,33.9,29.86,East,80,0.0,0.0,84,0.00,,,0.00,Wunderground v.1.15,2013-02-14 01:03:00,
2013-02-13 19:09:00,38.1,33.4,29.86,East,81,0.0,0.0,83,0.00,,,0.00,Wunderground v.1.15,2013-02-14 01:09:00,
2013-02-13 19:14:00,38.0,33.3,29.86,East,81,0.0,0.0,83,0.00,,,0.00,Wunderground v.1.15,2013-02-14 01:14:00,
2013-02-13 19:19:00,37.9,33.5,29.86,East,81,0.0,0.0,84,0.00,,,0.00,Wunderground v.1.15,2013-02-14 01:19:00,
2013-02-13 19:25:00,37.9,33.2,29.87,East,81,0.0,0.0,83,0.00,,,0.00,Wunderground v.1.15,2013-02-14 01:25:00,
2013-02-13 19:30:00,37.9,33.2,29.87,SE,134,0.0,1.0,83,0.00,,,0.00,Wunderground v.1.15,2013-02-14 01:30:00,
2013-02-13 19:35:00,37.7,33.3,29.87,East,86,0.0,1.0,84,0.00,,,0.00,Wunderground v.1.15,2013-02-14 01:35:00,
2013-02-13 19:41:00,37.5,33.4,29.87,East,84,0.0,0.0,85,0.00,,,0.00,Wunderground v.1.15,2013-02-14 01:41:00,
2013-02-13 19:46:00,37.3,33.2,29.87,East,90,0.0,0.0,85,0.00,,,0.00,Wunderground v.1.15,2013-02-14 01:46:00,
2013-02-13 19:51:00,37.2,33.1,29.87,East,91,0.0,0.0,85,0.00,,,0.00,Wunderground v.1.15,2013-02-14 01:51:00,
2013-02-13 19:56:00,37.3,33.2,29.87,ENE,67,0.0,0.0,85,0.00,,,0.00,Wunderground v.1.15,2013-02-14 01:56:00,
2013-02-13 20:02:00,37.7,33.3,29.87,SW,216,0.0,0.0,84,0.00,,,0.00,Wunderground v.1.15,2013-02-14 02:02:00,
2013-02-13 20:07:00,38.3,33.9,29.87,SE,136,0.0,2.0,84,0.00,,,0.00,Wunderground v.1.15,2013-02-14 02:07:00,
2013-02-13 20:13:00,39.3,34.6,29.87,South,176,1.0,4.0,83,0.00,,,0.00,Wunderground v.1.15,2013-02-14 02:13:00,
2013-02-13 20:18:00,39.9,35.2,29.87,South,176,1.0,4.0,83,0.00,,,0.00,Wunderground v.1.15,2013-02-14 02:18:00,
2013-02-13 20:24:00,40.4,35.3,29.88,WSW,246,1.0,3.0,82,0.00,,,0.00,Wunderground v.1.15,2013-02-14 02:24:00,
2013-02-13 20:29:00,40.6,35.5,29.88,SW,226,2.0,3.0,82,0.00,,,0.00,Wunderground v.1.15,2013-02-14 02:29:00,
2013-02-13 20:34:00,41.0,35.9,29.88,SE,143,2.0,4.0,82,0.00,,,0.00,Wunderground v.1.15,2013-02-14 02:34:00,
2013-02-13 20:40:00,41.2,36.4,29.88,SSW,212,2.0,2.0,83,0.00,,,0.00,Wunderground v.1.15,2013-02-14 02:40:00,
2013-02-13 20:45:00,41.3,36.5,29.88,SW,226,2.0,3.0,83,0.00,,,0.00,Wunderground v.1.15,2013-02-14 02:45:00,
2013-02-13 20:50:00,41.5,36.7,29.88,South,172,2.0,2.0,83,0.00,,,0.00,Wunderground v.1.15,2013-02-14 02:50:00,
2013-02-13 20:55:00,41.5,36.7,29.88,SSE,155,2.0,2.0,83,0.00,,,0.00,Wunderground v.1.15,2013-02-14 02:55:00,
2013-02-13 21:00:00,41.4,36.9,29.88,West,260,1.0,1.0,84,0.00,,,0.00,Wunderground v.1.15,2013-02-14 03:00:00,
2013-02-13 21:06:00,41.3,36.8,29.88,SW,232,2.0,5.0,84,0.00,,,0.00,Wunderground v.1.15,2013-02-14 03:06:00,
2013-02-13 21:12:00,41.2,37.0,29.89,South,190,2.0,4.0,85,0.00,,,0.00,Wunderground v.1.15,2013-02-14 03:12:00,
2013-02-13 21:17:00,41.1,36.9,29.88,SSE,150,1.0,4.0,85,0.00,,,0.00,Wunderground v.1.15,2013-02-14 03:17:00,
2013-02-13 21:23:00,41.0,36.8,29.88,SSE,150,2.0,4.0,85,0.00,,,0.00,Wunderground v.1.15,2013-02-14 03:23:00,
2013-02-13 21:28:00,40.9,37.0,29.88,SSW,200,2.0,4.0,86,0.00,,,0.00,Wunderground v.1.15,2013-02-14 03:28:00,
2013-02-13 21:33:00,40.8,36.9,29.89,WSW,246,1.0,3.0,86,0.00,,,0.00,Wunderground v.1.15,2013-02-14 03:33:00,
2013-02-13 21:39:00,40.7,36.8,29.89,SE,136,2.0,4.0,86,0.00,,,0.00,Wunderground v.1.15,2013-02-14 03:39:00,
2013-02-13 21:44:00,40.5,36.9,29.89,WSW,242,2.0,2.0,87,0.00,,,0.00,Wunderground v.1.15,2013-02-14 03:44:00,
2013-02-13 21:49:00,40.3,36.7,29.89,SSE,156,1.0,6.0,87,0.00,,,0.00,Wunderground v.1.15,2013-02-14 03:49:00,
2013-02-13 21:55:00,40.2,36.6,29.89,SW,215,1.0,2.0,87,0.00,,,0.00,Wunderground v.1.15,2013-02-14 03:55:00,
2013-02-13 22:00:00,40.1,36.8,29.89,WSW,243,1.0,1.0,88,0.00,,,0.00,Wunderground v.1.15,2013-02-14 04:00:00,
2013-02-13 22:06:00,39.9,36.6,29.89,WSW,242,1.0,3.0,88,0.00,,,0.00,Wunderground v.1.15,2013-02-14 04:06:00,
2013-02-13 22:11:00,39.7,36.4,29.89,ESE,108,1.0,1.0,88,0.00,,,0.00,Wunderground v.1.15,2013-02-14 04:11:00,
2013-02-13 22:17:00,39.4,36.4,29.89,SW,218,1.0,3.0,89,0.00,,,0.00,Wunderground v.1.15,2013-02-14 04:17:00,
2013-02-13 22:22:00,39.3,36.6,29.89,ESE,113,1.0,1.0,90,0.00,,,0.00,Wunderground v.1.15,2013-02-14 04:22:00,
2013-02-13 22:27:00,39.3,36.6,29.89,WSW,246,1.0,5.0,90,0.00,,,0.00,Wunderground v.1.15,2013-02-14 04:27:00,
2013-02-13 22:32:00,39.3,36.6,29.89,SE,124,1.0,6.0,90,0.00,,,0.00,Wunderground v.1.15,2013-02-14 04:32:00,
2013-02-13 22:37:00,39.3,36.6,29.89,WNW,288,1.0,6.0,90,0.00,,,0.00,Wunderground v.1.15,2013-02-14 04:37:00,
2013-02-13 22:42:00,39.3,36.6,29.89,South,176,1.0,2.0,90,0.00,,,0.00,Wunderground v.1.15,2013-02-14 04:42:00,
2013-02-13 22:48:00,39.2,36.8,29.89,SW,217,0.0,2.0,91,0.00,,,0.00,Wunderground v.1.15,2013-02-14 04:48:00,
2013-02-13 22:53:00,39.3,36.9,29.89,SSW,197,1.0,7.0,91,0.00,,,0.00,Wunderground v.1.15,2013-02-14 04:53:00,
2013-02-13 22:58:00,39.3,36.9,29.89,West,273,2.0,7.0,91,0.00,,,0.00,Wunderground v.1.15,2013-02-14 04:58:00,
2013-02-13 23:00:00,39.3,36.9,29.89,SW,235,2.0,2.0,91,0.00,,,0.00,Wunderground v.1.15,2013-02-14 05:00:00,
2013-02-13 23:01:00,39.3,36.9,29.89,SSW,198,2.0,2.0,91,0.00,,,0.00,Wunderground v.1.15,2013-02-14 05:01:00,
2013-02-13 23:03:00,39.3,36.9,29.89,West,259,2.0,2.0,91,0.00,,,0.00,Wunderground v.1.15,2013-02-14 05:03:00,
2013-02-13 23:05:00,39.2,36.8,29.90,WSW,250,1.0,2.0,91,0.00,,,0.00,Wunderground v.1.15,2013-02-14 05:05:00,
2013-02-13 23:11:00,39.1,36.7,29.90,SSW,212,1.0,3.0,91,0.00,,,0.00,Wunderground v.1.15,2013-02-14 05:11:00,
2013-02-13 23:16:00,39.2,37.1,29.90,SSW,195,1.0,4.0,92,0.00,,,0.00,Wunderground v.1.15,2013-02-14 05:16:00,
2013-02-13 23:21:00,39.2,37.1,29.90,WSW,238,2.0,2.0,92,0.00,,,0.00,Wunderground v.1.15,2013-02-14 05:21:00,
2013-02-13 23:26:00,39.1,36.7,29.90,SSE,159,1.0,4.0,91,0.00,,,0.00,Wunderground v.1.15,2013-02-14 05:26:00,
2013-02-13 23:32:00,38.9,36.8,29.90,SW,222,1.0,1.0,92,0.00,,,0.00,Wunderground v.1.15,2013-02-14 05:32:00,
2013-02-13 23:37:00,38.8,36.7,29.90,SSW,207,1.0,3.0,92,0.00,,,0.00,Wunderground v.1.15,2013-02-14 05:37:00,
2013-02-13 23:42:00,38.7,36.6,29.90,SE,146,1.0,2.0,92,0.00,,,0.00,Wunderground v.1.15,2013-02-14 05:42:00,
2013-02-13 23:47:00,38.6,36.5,29.90,West,259,1.0,2.0,92,0.00,,,0.00,Wunderground v.1.15,2013-02-14 05:47:00,
2013-02-13 23:53:00,38.4,36.6,29.90,SSW,203,1.0,2.0,93,0.00,,,0.00,Wunderground v.1.15,2013-02-14 05:53:00,
2013-02-13 23:58:00,38.4,36.6,29.90,WSW,249,1.0,2.0,93,0.00,,,0.00,Wunderground v.1.15,2013-02-14 05:58:00,